Regional Weather Roundup
Issued by NWS Albany, NY

Home | Current Version | Previous Version | Graphics & Text | Print | Product List | Glossary Off
Versions: 1 2 3 4 5 6 7 8 9 10 11 12 13 14 15 16 17 18 19 20 21 22 23 24 25 26 27 28 29 30 31 32 33 34 35 36 37 38 39 40 41 42 43 44 45 46 47 48 49 50

000
ASUS41 KALY 101310
RWRALY

NEW YORK STATE HOURLY WEATHER ROUNDUP
NATIONAL WEATHER SERVICE ALBANY NY
900 AM EDT THU JUL 10 2014

NOTE: "FAIR" INDICATES FEW OR NO CLOUDS BELOW 12,000 FEET WITH NO
SIGNIFICANT WEATHER AND/OR NO OBSTRUCTIONS TO VISIBILITY.

NYZ032-033-038>043-046>054-057>066-NYZ062>081-101400-
EAST


CITY           SKY/WX    TMP DP  RH WIND       PRES   REMARKS
ALBANY         MOSUNNY   68  56  65 NW6       30.14R
GLENS FALLS    SUNNY     66  55  67 S3        30.12R
POUGHKEEPSIE   SUNNY     71  57  61 N9        30.11R
NEWBURGH       MOSUNNY   70  61  73 NE12      30.13R
MONTGOMERY     MOSUNNY   69  63  81 NE8       30.12R
WHITE PLAINS   MOSUNNY   71  58  63 NE10      30.10R
ISLIP          PTSUNNY   73  62  68 NE10      30.07R
NEW YORK CITY  PTSUNNY   71  63  75 NE12      30.09R
CENTRAL PARK   PTSUNNY   73  62  68 VRB3      30.12R
$$

NYZ005>009-017-018-044>046-055-056-101400-
CENTRAL


CITY           SKY/WX    TMP DP  RH WIND       PRES   REMARKS
FULTON         SUNNY     64  54  69 VRB5      30.16R
SYRACUSE       MOSUNNY   66  52  60 W5        30.16R
ROME           SUNNY     62  53  72 CALM      30.17R
ELMIRA         SUNNY     65  56  72 NE7       30.15S
BINGHAMTON     SUNNY     62  53  72 VRB5      30.16R
$$

NYZ026>034-041>043-101400-
NORTH


CITY           SKY/WX    TMP DP  RH WIND       PRES   REMARKS
WATERTOWN      SUNNY     63  48  58 CALM      30.15R
FORT DRUM      NOT AVBL
MASSENA        SUNNY     62  51  67 W9        30.13R
SARANAC LAKE   MOSUNNY   56  48  74 VRB5      30.13R
PLATTSBURGH    SUNNY     65  51  60 VRB5      30.11R
$$

NYZ001>004-010>016-019>021-101400-
WEST


CITY           SKY/WX    TMP DP  RH WIND       PRES   REMARKS
NIAGARA FALLS  MOSUNNY   63  51  65 E6        30.17R
BUFFALO        MOSUNNY   63  49  60 E6        30.17R
DUNKIRK        SUNNY     65  55  70 NE8       30.17R
JAMESTOWN      CLOUDY    59  54  82 E6        30.18R
WELLSVILLE     MOSUNNY   57  54  89 SE3       30.19R
ROCHESTER      MOSUNNY   64  51  62 CALM      30.17R
PENN YAN       SUNNY     64  50  60 VRB3      30.18R
$$

             KEY
       WCI = WIND CHILL INDEX
       VSB = VISIBILITY
       HX  = HEAT INDEX
$$


USA.gov is the U.S. government's official web portal to all federal, state and local government web resources and services.